Regional Weather Roundup
Issued by NWS

Home | Current Version | Previous Version | Graphics & Text | Print | Product List | Glossary On
Versions: 1 2 3 4 5 6 7 8 9 10 11 12 13 14 15 16 17 18 19 20 21 22 23 24 25 26 27 28 29 30 31 32 33 34 35 36 37 38 39 40 41 42 43 44 45 46 47 48 49 50
000
ASUS43 KDMX 222301
RWRIA

WEATHER ROUNDUP FOR IOWA
NATIONAL WEATHER SERVICE DES MOINES IA
600 PM CDT TUE AUG 22 2017

NOTE: "FAIR" INDICATES FEW OR NO CLOUDS BELOW 12,000 FEET WITH NO
SIGNIFICANT WEATHER AND/OR OBSTRUCTIONS TO VISIBILITY.

* - THESE STATIONS ARE NOT NWS STATIONS...THUS NOT UNDER NWS
QUALITY CONTROL.  THEY ALSO DO NOT REPORT WEATHER SUCH
AS PRECIPITATION OR FOG.

IAZ001>003-012>014-020>022-031>034-043>046-230000-
   NORTHWEST IOWA

CITY           SKY/WX    TMP DP  RH WIND       PRES   REMARKS
CARROLL *      SUNNY     73  54  49 NW9G18    30.13S
CHEROKEE *     SUNNY     73  48  41 NW10G17   30.14S
DENISON *      SUNNY     72  54  53 NW12      30.15F
LE MARS *      SUNNY    102 N/A N/A NW9G15    30.14F
ORANGE CITY *  SUNNY     73  52  46 NW8       30.15S
SHELDON *      SUNNY     72  50  46 NW9       30.13S
SIOUX CITY     SUNNY     75  52  44 NW14      30.14F
SPENCER        SUNNY     74  49  41 NW14G21   30.13S
STORM LAKE *   SUNNY     70  52  52 NW10      30.14S
$$

IAZ055>058-069>071-079>083-090>094-230000-
   SOUTHWEST IOWA

CITY           SKY/WX    TMP DP  RH WIND       PRES   REMARKS
ATLANTIC *     SUNNY     72  52  49 N13       30.13F
AUDUBON *      SUNNY     73  52  46 NW5       30.15S
CLARINDA *     SUNNY     73  54  49 N8G14     30.15S
COUNCIL BLFS * SUNNY     73  54  49 N8        30.15S
CRESTON *      SUNNY     73  46  38 N9G18     30.14S
HARLAN  *      SUNNY     72  52  49 N9        30.18S
LAMONI         SUNNY     76  50  40 N12       30.10S
RED OAK *      SUNNY     75  52  43 NW7       30.14S
SHENANDOAH *   SUNNY     73  52  46 N8        30.14S
$$

IAZ047>049-059>061-072>074-084-230000-
   CENTRAL IOWA

CITY           SKY/WX    TMP DP  RH WIND       PRES   REMARKS
AMES           SUNNY     73  53  49 N13       30.10S
ANKENY *       SUNNY     73  48  40 NW12G18   30.11S
BOONE *        SUNNY     73  50  43 NW15      30.10S
CHARITON *     SUNNY     73  48  40 N15       30.09S
DES MOINES     MOSUNNY   76  47  35 NW13G25   30.09S
GRINNELL*      SUNNY     70  52  51 NW13G18   30.10S
KNOXVILLE *    SUNNY     73  48  40 N14       30.08S
MARSHALLTOWN   SUNNY     72  51  47 NW14      30.08S
NEWTON *       SUNNY     72  50  46 N14       30.09F
PELLA *        SUNNY     75  48  38 NW14      30.10S
PERRY *          N/A     74  49  40 NW7       30.11S
$$

IAZ004>006-015-016-023>025-035-036-230000-
   NORTH CENTRAL IOWA

CITY           SKY/WX    TMP DP  RH WIND       PRES   REMARKS
ALGONA *       SUNNY     73  50  43 NW9G16    30.11S HAZE
CLARION *      SUNNY     72  50  46 NW16      30.11S
ESTHERVILLE    SUNNY     71  50  47 NW10      30.11S
FORT DODGE *   SUNNY     72  48  43 N7        30.11S
MASON CITY     MOSUNNY   71  49  45 NW14      30.10S
FOREST CITY *    N/A     70  46  43 NW16G22   30.10S
WEBSTER CITY * SUNNY     72  52  49 NW9G16    30.09S
IOWA FALLS *     N/A     73  52  47 NW10      30.11S
$$

IAZ007>011-017>019-026>030-037>042-050>054-066-230000-
   NORTHEAST IOWA

CITY           SKY/WX    TMP DP  RH WIND       PRES   REMARKS
CEDAR RAPIDS   SUNNY     73  51  46 NW17      30.04S
CHARLES CITY * MOSUNNY   72  50  46 NW9G18    30.08R
CLINTON *      SUNNY     72  54  53 NW15      30.01S
DECORAH *      PTSUNNY   72  50  46 NW12G18   30.04R
DUBUQUE        SUNNY     69  51  52 NW12      30.03S
MONTICELLO *   MOSUNNY   73  52  46 NW9G18    30.03S
OELWEIN *      SUNNY     72  52  49 NW13G22   30.07R
WATERLOO       SUNNY     72  48  42 NW14      30.05S
$$

IAZ064-065-067-068-078-230000-
   EAST CENTRAL IOWA

CITY           SKY/WX    TMP DP  RH WIND       PRES   REMARKS
DAVENPORT      SUNNY     74  53  48 NW10G18   30.03S
IOWA CITY      SUNNY     76  51  41 NW10G22   30.05S
MUSCATINE *    SUNNY     75  52  43 NW13G22   30.03S
QUAD CITIES    SUNNY     76  50  40 NW15G24   30.01R
$$

IAZ062-063-075>077-085>089-095>099-230000-
   SOUTHEAST IOWA

CITY           SKY/WX    TMP DP  RH WIND       PRES   REMARKS
BURLINGTON     SUNNY     75  55  49 NW10G22   30.03R
FAIRFIELD *    SUNNY     73  50  43 NW15G23   30.05S
FORT MADISON * SUNNY     75  55  50 N10       30.04S
KEOKUK *       SUNNY     77  55  47 N12G18    30.02S
OSKALOOSA *      N/A     73  50  44 NW12G17   30.08S
OTTUMWA        SUNNY     76  50  40 NW18      30.07S
WASHINGTON *   SUNNY     73  54  49 N16G22    30.06S
$$

ABBREVIATIONS USED IN REMARKS
   TC - TEMPERATURES IN CELSIUS
  WCI - WIND CHILL INDEX
   HX - HEAT INDEX
  VSB - VISIBILITY
$$





USA.gov is the U.S. government's official web portal to all federal, state and local government web resources and services.